Wind_Speed
13 14 13 13 13 12 11 10 10 10 11 11 11 12 13 14 15 16 16 16 16 16 17 18 18 18 18 19 21 21 21 21 21 21 20 19 19 19 19 18 18 17
14 15 15 15 14 13 12 11 12 12 12 13 13 13 13 14 14 16 17 17 17 17 17 18 19 19 19 20 21 21 21 22 22 22 21 20 20 20 19 19 19 19
13 14 15 15 15 14 13 13 13 14 14 14 14 14 14 14 15 15 17 18 18 18 18 19 19 20 20 21 22 22 22 22 22 22 21 21 20 20 19 19 20 21
13 14 14 15 16 16 15 14 14 15 15 15 15 15 16 16 16 17 17 18 18 19 19 19 20 21 21 22 23 23 23 23 22 22 22 21 21 21 20 20 21 22
13 14 14 15 16 17 17 16 15 15 15 15 15 16 17 18 18 19 19 19 19 20 20 21 21 21 22 23 24 24 24 24 23 23 23 23 23 22 22 22 22 22
14 14 15 16 16 18 17 16 16 16 16 16 16 17 17 18 19 20 21 21 21 21 22 22 22 22 23 24 25 26 25 24 25 25 24 24 24 24 23 23 23 23
14 14 15 16 18 18 17 16 16 17 17 18 17 17 17 18 19 21 22 23 23 23 24 24 24 24 24 25 26 26 27 26 26 26 26 25 24 25 25 24 23 23
15 16 16 18 19 19 18 17 17 17 18 19 18 18 18 18 19 21 23 24 24 25 25 26 27 27 26 26 26 27 27 28 28 28 27 26 26 26 26 25 24 24
16 16 18 19 19 19 19 19 18 19 19 20 19 19 19 20 21 22 23 24 25 26 26 27 28 28 29 29 28 28 28 28 29 29 28 28 27 26 27 26 25 25
15 16 17 18 19 19 19 19 20 20 21 21 21 22 22 22 22 23 24 25 26 26 27 28 29 29 29 30 30 30 29 29 29 30 30 30 29 28 28 28 27 26
14 15 16 17 18 18 19 20 21 21 22 22 23 23 23 23 23 24 24 25 26 27 28 29 30 30 31 31 31 31 31 31 30 30 30 31 31 30 29 29 29 27
13 15 16 16 17 18 19 20 21 21 22 23 23 24 24 24 24 25 25 26 27 27 28 29 29 30 32 32 32 32 32 33 33 32 31 32 32 32 31 31 31 30
12 14 15 16 17 18 19 20 21 22 22 23 24 24 24 24 24 25 26 26 27 28 29 29 30 31 32 33 34 34 34 34 34 34 34 34 34 33 33 33 33 32
13 14 14 15 16 17 19 20 20 21 22 22 23 24 24 24 25 25 26 27 28 28 29 30 31 32 33 34 35 35 36 37 37 37 37 37 36 35 35 35 34 34
14 15 15 16 16 17 18 19 19 19 20 20 21 22 23 23 24 25 27 28 29 30 30 31 32 34 35 37 38 38 38 39 39 40 39 39 39 38 37 36 36 36
15 16 16 16 16 16 17 17 18 18 18 19 20 20 21 22 24 26 28 29 30 31 31 32 33 34 35 38 40 41 43 43 42 41 40 41 41 41 40 38 37 37
14 15 15 15 15 15 15 15 16 16 17 17 18 19 20 22 23 25 26 27 29 30 31 32 33 34 35 38 40 42 46 48 46 43 43 44 43 43 43 41 39 38
13 14 14 13 13 13 13 14 15 15 16 17 17 18 19 21 22 23 24 26 28 30 31 33 34 35 37 39 42 43 47 49 48 46 47 47 45 44 44 43 41 39
12 12 12 12 11 12 13 13 14 15 16 17 17 18 20 21 22 23 24 25 27 29 31 33 35 36 37 39 41 44 47 48 47 48 50 50 48 45 43 43 43 41
11 11 10 11 11 12 13 14 14 15 16 17 18 19 21 21 21 22 23 24 26 28 30 32 34 36 38 40 41 43 46 48 48 48 49 50 49 46 44 44 45 44
10 10 10 10 11 12 13 13 14 15 16 18 19 20 21 21 21 22 23 24 25 27 30 31 32 34 37 40 40 41 43 47 48 47 48 49 49 47 47 45 45 45
10 9 9 10 11 12 12 13 15 16 16 17 18 18 19 20 21 22 23 24 25 27 29 30 30 31 34 36 37 36 39 43 46 47 47 48 49 50 50 48 45 45
10 10 10 11 11 13 14 15 15 15 15 16 16 17 17 18 20 22 22 23 24 25 27 26 26 27 28 30 31 31 34 39 43 45 46 46 48 50 51 48 45 43
10 11 11 12 13 14 14 15 16 15 15 16 16 15 15 16 18 19 20 22 23 24 24 24 23 23 23 24 25 28 32 36 39 41 43 44 45 47 48 46 45 43
10 11 12 12 13 13 14 16 16 15 15 15 15 15 15 15 16 17 18 20 21 22 22 22 22 22 21 21 22 25 30 34 37 38 40 42 44 46 45 45 45 44
10 11 11 12 13 13 14 15 15 15 14 15 15 15 15 14 15 16 16 17 19 20 20 20 20 20 19 19 20 23 27 32 34 36 38 41 42 43 44 44 45 44
Wind_Direction
231 233 228 222 224 226 225 222 217 212 215 221 223 221 222 224 223 221 221 220 218 217 214 214 216 217 219 216 212 212 215 217 218 218 219 220 221 221 221 222 221 220
233 235 233 225 221 224 224 221 221 216 211 215 221 224 224 225 226 225 225 226 224 222 219 219 221 222 222 219 215 215 217 219 219 219 221 219 220 223 221 219 220 222
238 237 236 230 220 219 224 224 222 220 215 213 216 221 224 226 229 228 227 229 229 227 224 221 222 225 225 221 218 217 219 222 221 220 222 222 223 225 223 221 219 220
238 238 239 235 223 216 218 221 222 221 220 218 217 220 223 224 226 228 228 229 232 234 233 228 225 226 226 224 221 219 220 223 223 221 222 224 225 225 225 225 222 219
235 237 237 235 226 218 216 217 220 224 225 224 222 223 226 227 227 227 227 228 230 234 238 237 233 229 228 227 225 222 221 223 225 225 223 224 227 227 226 227 225 221
235 237 236 231 225 220 218 218 219 224 227 227 228 228 229 232 231 229 228 229 230 232 236 239 239 236 231 230 229 226 223 222 225 227 226 226 227 229 228 226 225 223
238 239 235 230 226 222 221 220 220 222 224 225 227 228 229 231 231 231 230 231 232 232 233 235 238 239 236 233 232 229 227 224 224 227 228 228 228 229 230 227 223 223
237 236 232 228 227 226 224 223 220 218 219 222 224 226 228 229 230 231 232 233 233 233 233 233 235 238 238 237 235 232 230 227 226 228 229 229 229 229 231 229 224 221
232 231 230 228 228 228 226 224 222 219 219 221 223 225 227 229 231 234 235 235 235 235 235 234 234 235 237 239 238 236 234 232 230 230 231 231 230 229 231 231 226 221
227 227 229 229 228 228 227 226 225 224 224 226 226 228 229 231 233 236 237 238 237 236 236 235 234 233 235 239 240 238 236 235 233 232 232 232 232 230 231 233 231 227
227 228 231 231 229 228 228 229 230 229 231 232 234 234 235 237 239 240 241 242 241 239 238 236 234 234 234 237 240 239 237 236 236 235 233 233 233 232 231 233 234 232
231 233 234 234 233 232 231 233 234 235 236 237 240 241 242 244 245 246 246 246 245 244 242 241 239 237 237 238 239 240 239 236 235 236 235 233 233 232 231 232 234 233
240 239 238 237 236 236 236 236 237 237 238 239 242 244 245 246 246 246 247 246 246 246 245 245 244 243 243 242 242 241 241 239 236 235 235 234 234 232 231 231 232 233
251 247 244 241 241 241 241 241 241 241 241 241 243 244 245 245 244 245 246 246 248 248 247 247 246 247 247 246 245 244 242 241 239 236 234 234 235 233 232 230 230 232
257 254 251 248 248 247 247 247 246 245 244 244 244 245 246 246 246 247 248 249 250 251 251 250 248 248 249 248 248 247 245 243 242 239 236 235 235 234 233 231 230 231
255 256 255 253 251 251 250 248 244 242 242 243 246 247 248 249 250 250 251 252 252 252 252 252 251 250 250 250 249 249 248 246 243 241 238 235 234 234 233 231 230 231
255 256 255 253 252 249 246 244 240 238 239 242 246 250 251 253 254 255 256 256 256 255 254 254 254 254 253 252 250 248 247 246 243 241 240 236 234 234 233 231 230 232
256 256 255 252 251 249 246 243 241 241 243 245 250 253 255 256 258 260 262 263 261 259 257 256 255 256 255 254 252 249 248 246 244 241 239 237 235 234 234 232 231 231
255 253 252 250 250 251 250 249 250 251 253 255 257 258 258 260 261 263 264 264 263 262 261 260 260 260 259 258 254 250 248 247 244 240 237 235 234 234 233 233 231 229
263 259 255 252 252 253 253 255 258 260 262 265 265 264 264 263 263 264 265 265 267 268 268 267 266 265 264 262 258 251 246 245 243 241 238 234 233 232 230 231 231 228
274 270 263 257 255 256 257 259 262 264 267 269 270 270 269 267 265 265 266 269 272 274 274 272 271 269 267 264 259 252 245 241 239 239 238 235 232 231 229 229 230 228
276 272 265 259 258 259 263 265 266 268 270 272 273 274 273 271 269 268 270 274 276 277 278 279 278 277 272 265 258 251 245 240 236 235 237 235 232 229 228 228 227 227
274 266 258 257 259 260 263 267 269 271 271 272 274 276 276 275 273 273 276 280 281 282 284 285 285 284 276 264 255 248 241 236 233 232 233 235 233 229 228 227 225 223
276 266 258 257 259 260 263 268 271 271 270 271 274 278 279 279 279 281 284 286 288 289 289 288 288 286 277 264 254 245 235 229 229 231 231 232 231 229 227 226 223 221
280 273 265 262 262 263 266 269 271 273 274 276 280 283 284 285 286 288 289 290 291 293 294 293 291 286 276 265 255 244 233 228 229 231 231 229 228 228 227 226 224 224
282 280 274 270 269 267 265 265 269 274 278 280 283 286 288 288 288 291 294 293 294 298 299 300 299 289 274 263 256 245 236 233 232 232 231 229 227 227 227 226 225 225
Height
3180 3180 3181 3181 3181 3182 3183 3184 3185 3186 3187 3189 3190 3191 3193 3194 3195 3196 3197 3198 3200 3201 3202 3203 3204 3205 3206 3207 3209 3210 3211 3212 3213 3214 3214 3215 3216 3217 3219 3220 3221 3222
3179 3179 3180 3180 3181 3181 3182 3183 3184 3185 3186 3188 3189 3190 3191 3193 3194 3195 3196 3197 3198 3200 3201 3202 3203 3204 3205 3206 3208 3209 3210 3211 3212 3212 3213 3214 3215 3216 3217 3219 3220 3221
3177 3178 3178 3179 3180 3180 3181 3182 3183 3184 3185 3186 3188 3189 3190 3191 3193 3194 3195 3196 3197 3198 3199 3200 3202 3203 3204 3205 3206 3207 3208 3209 3210 3211 3212 3213 3214 3215 3216 3218 3218 3220
3175 3176 3177 3177 3178 3179 3180 3180 3181 3183 3184 3185 3186 3187 3188 3190 3191 3192 3193 3195 3196 3197 3198 3199 3200 3201 3202 3203 3204 3206 3207 3208 3209 3210 3211 3212 3213 3214 3215 3216 3217 3218
3173 3174 3175 3175 3176 3177 3178 3179 3180 3181 3183 3184 3185 3185 3187 3188 3189 3190 3191 3192 3194 3195 3196 3197 3199 3200 3200 3201 3202 3204 3205 3206 3207 3208 3209 3210 3211 3212 3213 3214 3215 3217
3171 3172 3173 3174 3175 3176 3177 3178 3179 3180 3181 3182 3182 3183 3184 3186 3187 3188 3189 3190 3191 3192 3194 3195 3196 3198 3199 3199 3200 3201 3203 3204 3205 3206 3207 3208 3209 3210 3211 3212 3214 3215
3170 3170 3171 3172 3173 3174 3175 3176 3177 3178 3179 3180 3180 3181 3182 3183 3184 3185 3187 3188 3188 3189 3191 3192 3193 3195 3197 3197 3198 3199 3200 3202 3203 3204 3205 3206 3207 3208 3209 3210 3212 3213
3168 3169 3170 3171 3171 3172 3174 3175 3175 3176 3177 3178 3179 3179 3180 3181 3182 3183 3184 3185 3186 3187 3187 3188 3190 3191 3193 3195 3196 3196 3198 3199 3200 3201 3202 3204 3205 3206 3207 3208 3209 3211
3166 3167 3168 3169 3170 3171 3172 3173 3174 3174 3175 3176 3177 3177 3178 3178 3179 3180 3181 3182 3183 3184 3184 3185 3186 3187 3189 3191 3193 3194 3195 3196 3198 3199 3200 3201 3202 3204 3205 3206 3207 3208
3165 3165 3166 3167 3168 3169 3170 3171 3172 3172 3173 3174 3174 3175 3175 3176 3177 3177 3178 3179 3180 3181 3182 3182 3183 3184 3185 3187 3189 3191 3192 3193 3194 3196 3197 3198 3200 3202 3203 3203 3204 3206
3164 3164 3165 3166 3166 3167 3168 3169 3169 3170 3171 3171 3172 3173 3173 3174 3174 3175 3175 3176 3177 3178 3179 3179 3180 3181 3182 3183 3185 3187 3189 3190 3191 3192 3194 3195 3197 3198 3200 3201 3202 3203
3163 3163 3164 3165 3165 3166 3166 3167 3167 3168 3169 3169 3170 3170 3171 3171 3172 3172 3173 3173 3174 3175 3176 3177 3177 3178 3178 3180 3181 3183 3185 3186 3187 3188 3190 3191 3193 3194 3196 3197 3199 3200
3161 3161 3162 3163 3163 3163 3164 3164 3165 3165 3166 3167 3167 3167 3168 3169 3169 3170 3170 3171 3171 3172 3173 3173 3174 3174 3175 3176 3178 3179 3181 3182 3183 3184 3186 3187 3188 3190 3192 3194 3195 3197
3159 3159 3160 3160 3160 3161 3161 3161 3162 3162 3163 3164 3164 3165 3165 3166 3166 3167 3167 3167 3168 3169 3169 3170 3170 3171 3172 3172 3173 3175 3176 3177 3179 3180 3181 3183 3184 3186 3188 3189 3191 3193
3156 3156 3157 3157 3158 3158 3158 3158 3159 3160 3161 3161 3162 3162 3163 3163 3164 3164 3164 3164 3165 3165 3166 3166 3166 3167 3168 3168 3169 3170 3171 3173 3174 3175 3177 3179 3181 3182 3183 3185 3187 3189
3153 3154 3154 3154 3155 3155 3155 3156 3156 3157 3158 3158 3159 3160 3160 3161 3161 3161 3161 3161 3161 3161 3161 3161 3162 3163 3163 3164 3164 3165 3166 3167 3168 3170 3172 3174 3175 3177 3179 3181 3183 3185
3152 3152 3152 3152 3152 3153 3153 3153 3154 3154 3155 3156 3157 3157 3158 3158 3158 3158 3158 3158 3158 3157 3157 3157 3157 3158 3159 3159 3159 3160 3160 3160 3162 3166 3167 3168 3170 3172 3175 3177 3178 3180
3150 3150 3150 3150 3150 3150 3151 3151 3152 3152 3153 3153 3154 3155 3155 3155 3155 3155 3154 3154 3154 3153 3153 3153 3153 3153 3154 3153 3153 3153 3153 3153 3156 3160 3161 3162 3165 3168 3171 3173 3175 3176
3148 3148 3148 3148 3149 3149 3149 3149 3150 3150 3151 3151 3152 3152 3152 3151 3151 3151 3151 3150 3150 3149 3149 3148 3148 3148 3148 3147 3147 3147 3146 3146 3149 3152 3154 3156 3159 3162 3166 3169 3171 3172
3146 3146 3146 3147 3147 3147 3148 3148 3148 3149 3149 3149 3149 3149 3149 3148 3148 3147 3147 3146 3145 3145 3144 3143 3142 3142 3141 3140 3140 3140 3140 3140 3142 3144 3146 3149 3153 3157 3160 3163 3165 3168
3144 3144 3145 3145 3145 3146 3146 3146 3146 3147 3147 3147 3147 3147 3146 3146 3145 3144 3143 3143 3141 3140 3138 3137 3137 3136 3134 3132 3131 3132 3133 3133 3135 3137 3139 3142 3146 3150 3154 3157 3160 3164
3143 3143 3143 3143 3143 3144 3144 3144 3144 3144 3144 3144 3144 3144 3143 3143 3142 3141 3140 3139 3138 3136 3133 3131 3131 3129 3127 3125 3124 3125 3126 3127 3128 3131 3133 3136 3139 3143 3147 3151 3154 3159
3142 3142 3142 3141 3142 3142 3142 3142 3142 3142 3142 3142 3141 3141 3141 3140 3139 3138 3137 3136 3134 3132 3129 3127 3126 3123 3120 3118 3118 3119 3120 3121 3123 3125 3128 3130 3133 3137 3141 3145 3147 3152
3141 3141 3140 3140 3140 3140 3140 3140 3140 3140 3140 3139 3139 3138 3138 3137 3136 3135 3134 3132 3130 3128 3126 3123 3122 3119 3116 3114 3114 3115 3115 3116 3118 3121 3123 3126 3128 3131 3136 3140 3143 3146
3140 3140 3140 3139 3138 3138 3138 3138 3138 3138 3137 3137 3136 3136 3135 3134 3133 3132 3131 3129 3127 3125 3123 3120 3118 3116 3113 3112 3111 3111 3112 3113 3115 3116 3118 3121 3124 3127 3131 3135 3138 3142
3139 3139 3138 3138 3137 3136 3136 3136 3136 3135 3134 3134 3134 3133 3133 3132 3131 3129 3128 3127 3125 3122 3120 3118 3116 3113 3111 3110 3109 3109 3109 3110 3111 3112 3114 3117 3120 3123 3127 3130 3133 3137